Tracking 27107 objects as of 21-Mar-2023
HD Live streaming from Space Station
objects crossing your sky now

COSMOS 249 DEB

Track COSMOS 249 DEB now!
10-day predictions


NORAD ID: 19362
Int'l Code: 1968-091DJ
Perigee: 543.8 km
Apogee: 1,238.6 km
Inclination: 62.8 °
Period: 102.6 minutes
Semi major axis: 7262 km
RCS: 0.01 m2 (small)
Launch date: October 20, 1968
Source: Commonwealth of Independent States (former USSR) (CIS)
Launch site: TYURATAM MISSILE AND SPACE COMPLEX (TTMTR)

Note: This is SATELLITE DEBRIS
Your satellite tracking list
Your tracking list is empty




NASA's NSSDC Master Catalog

Two Line Element Set (TLE):
1 19362U 68091DJ  23079.99349897  .00009597  00000-0  22437-2 0  9994
2 19362  62.7912 229.8370 0478360 238.7876 116.5465 14.02827330752608
Source of the keplerian elements: AFSPC